^^
Franklin Riverside ( IFRANKLI3 Nearby PWS ) Historical Data
 
Daily Summary for December 14, 2018 Units:  Metric    English   Both
« Previous Day
Next Day »
Daily Weekly Monthly Yearly Custom
  Current: High: Low: Average:
Temperature: 17.0 °C 25.5 °C 13.4 °C 19.1 °C
Dew Point: 12.8 °C 14.8 °C 10.5 °C 13.1 °C
Humidity: 76% 97% 45% 70%
Wind Speed: 1.8km/h 14.8km/h 0.0km/h 2.6km/h
Wind Gust: 4.0km/h 24.1km/h - -
WindNorth - - SW
Pressure: 1018.8 hPa 1019.5 hPa 1011.1 hPa -
Precipitation: 0.0 mm      
Historical Graphs
 
 
Tabular Data for December 14, 2018
Time Temperature Dew Point Pressure Wind Wind Speed Wind Gust Humidity Rainfall Rate (Hourly) solar
00:04 16.0 °C 14.4 °C 1011.1 hPa Calm     90% 0.0 mm 0.00 W/m2
00:09 15.9 °C 14.5 °C 1011.1 hPa Calm     91% 0.0 mm 0.00 W/m2
00:14 15.8 °C 14.4 °C 1011.4 hPa Calm     91% 0.0 mm 0.00 W/m2
00:19 15.7 °C 14.3 °C 1011.4 hPa Calm     91% 0.0 mm 0.00 W/m2
00:24 15.6 °C 14.3 °C 1011.1 hPa Calm     92% 0.0 mm 0.00 W/m2
00:29 15.5 °C 14.2 °C 1011.4 hPa Calm     92% 0.0 mm 0.00 W/m2
00:34 15.5 °C 14.2 °C 1011.4 hPa Calm     92% 0.0 mm 0.00 W/m2
00:39 15.4 °C 14.1 °C 1011.4 hPa Calm     92% 0.0 mm 0.00 W/m2
00:44 15.3 °C 14.0 °C 1011.4 hPa Calm     92% 0.0 mm 0.00 W/m2
00:49 15.3 °C 14.0 °C 1011.4 hPa Calm     92% 0.0 mm 0.00 W/m2
00:54 15.3 °C 14.0 °C 1011.4 hPa Calm     92% 0.0 mm 0.00 W/m2
00:59 15.3 °C 14.0 °C 1011.4 hPa Calm     92% 0.0 mm 0.00 W/m2
01:04 15.3 °C 13.9 °C 1011.4 hPa Calm     91% 0.0 mm 0.00 W/m2
01:09 15.3 °C 13.9 °C 1011.7 hPa Calm     91% 0.0 mm 0.00 W/m2
01:14 15.3 °C 14.0 °C 1011.4 hPa Calm     92% 0.0 mm 0.00 W/m2
01:19 15.3 °C 14.0 °C 1011.7 hPa Calm     92% 0.0 mm 0.00 W/m2
01:24 15.3 °C 14.0 °C 1011.4 hPa Calm     92% 0.0 mm 0.00 W/m2
01:29 15.3 °C 13.9 °C 1011.7 hPa Calm     91% 0.0 mm 0.00 W/m2
01:34 15.2 °C 13.9 °C 1011.7 hPa Calm     92% 0.0 mm 0.00 W/m2
01:39 15.2 °C 13.9 °C 1011.7 hPa Calm     92% 0.0 mm 0.00 W/m2
01:44 15.1 °C 13.8 °C 1011.7 hPa Calm     92% 0.0 mm 0.00 W/m2
01:49 15.1 °C 13.7 °C 1011.7 hPa Calm     91% 0.0 mm 0.00 W/m2
01:54 15.1 °C 13.8 °C 1011.7 hPa Calm     92% 0.0 mm 0.00 W/m2
01:59 15.0 °C 13.9 °C 1011.7 hPa Calm     93% 0.0 mm 0.00 W/m2
02:04 15.0 °C 13.9 °C 1011.7 hPa Calm     93% 0.0 mm 0.00 W/m2
02:09 14.9 °C 14.0 °C 1011.7 hPa Calm     94% 0.0 mm 0.00 W/m2
02:14 14.8 °C 13.9 °C 1011.7 hPa Calm     94% 0.0 mm 0.00 W/m2
02:19 14.7 °C 13.8 °C 1011.7 hPa Calm     94% 0.0 mm 0.00 W/m2
02:24 14.5 °C 13.7 °C 1012.1 hPa Calm     95% 0.0 mm 0.00 W/m2
02:29 14.3 °C 13.5 °C 1011.7 hPa Calm     95% 0.0 mm 0.00 W/m2
02:34 14.2 °C 13.4 °C 1011.7 hPa Calm     95% 0.0 mm 0.00 W/m2
02:39 14.1 °C 13.5 °C 1012.1 hPa Calm     96% 0.0 mm 0.00 W/m2
02:44 14.0 °C 13.4 °C 1012.1 hPa Calm     96% 0.0 mm 0.00 W/m2
02:49 13.9 °C 13.3 °C 1012.1 hPa Calm     96% 0.0 mm 0.00 W/m2
02:54 13.9 °C 13.3 °C 1011.7 hPa Calm     96% 0.0 mm 0.00 W/m2
02:59 13.8 °C 13.2 °C 1012.1 hPa Calm     96% 0.0 mm 0.00 W/m2
03:04 13.7 °C 13.1 °C 1012.1 hPa Calm     96% 0.0 mm 0.00 W/m2
03:09 13.7 °C 13.2 °C 1011.7 hPa Calm     97% 0.0 mm 0.00 W/m2
03:14 13.7 °C 13.2 °C 1011.7 hPa Calm     97% 0.0 mm 0.00 W/m2
03:19 13.7 °C 13.2 °C 1012.1 hPa Calm     97% 0.0 mm 0.00 W/m2
03:24 13.6 °C 13.1 °C 1012.1 hPa Calm     97% 0.0 mm 0.00 W/m2
03:29 13.6 °C 13.1 °C 1012.1 hPa Calm     97% 0.0 mm 0.00 W/m2
03:34 13.6 °C 13.1 °C 1012.1 hPa Calm     97% 0.0 mm 0.00 W/m2
03:39 13.6 °C 13.1 °C 1012.1 hPa Calm     97% 0.0 mm 0.00 W/m2
03:44 13.6 °C 13.1 °C 1011.7 hPa NNW 1.8 km/h 4.0 km/h 97% 0.0 mm 0.00 W/m2
03:49 13.6 °C 13.1 °C 1012.1 hPa Calm     97% 0.0 mm 0.00 W/m2
03:54 13.6 °C 13.1 °C 1012.1 hPa Calm     97% 0.0 mm 0.00 W/m2
03:59 13.6 °C 13.1 °C 1012.1 hPa Calm     97% 0.0 mm 0.00 W/m2
04:04 13.7 °C 13.1 °C 1011.7 hPa Calm     96% 0.0 mm 0.00 W/m2
04:09 13.7 °C 13.1 °C 1012.1 hPa Calm     96% 0.0 mm 0.00 W/m2
04:14 13.8 °C 13.2 °C 1012.1 hPa Calm     96% 0.0 mm 0.00 W/m2
04:19 13.9 °C 13.3 °C 1012.1 hPa Calm     96% 0.0 mm 0.00 W/m2
04:24 13.9 °C 13.3 °C 1012.1 hPa Calm     96% 0.0 mm 0.00 W/m2
04:29 13.9 °C 13.4 °C 1012.1 hPa Calm     97% 0.0 mm 0.00 W/m2
04:34 13.9 °C 13.3 °C 1012.4 hPa Calm     96% 0.0 mm 0.00 W/m2
04:39 13.8 °C 13.2 °C 1012.4 hPa Calm     96% 0.0 mm 0.00 W/m2
04:44 13.7 °C 13.1 °C 1012.4 hPa Calm     96% 0.0 mm 0.00 W/m2
04:49 13.7 °C 13.2 °C 1012.4 hPa Calm     97% 0.0 mm 0.00 W/m2
04:54 13.6 °C 13.0 °C 1012.8 hPa Calm     96% 0.0 mm 0.00 W/m2
04:59 13.6 °C 13.0 °C 1012.8 hPa Calm     96% 0.0 mm 0.00 W/m2
05:04 13.5 °C 13.0 °C 1012.8 hPa Calm     97% 0.0 mm 0.00 W/m2
05:09 13.4 °C 12.9 °C 1012.8 hPa Calm     97% 0.0 mm 0.00 W/m2
05:14 13.4 °C 12.8 °C 1012.8 hPa Calm     96% 0.0 mm 0.00 W/m2
05:19 13.4 °C 12.5 °C 1013.1 hPa Calm     94% 0.0 mm 0.00 W/m2
05:24 13.6 °C 12.5 °C 1012.8 hPa SSW 1.8 km/h 4.0 km/h 93% 0.0 mm 0.00 W/m2
05:29 13.7 °C 12.4 °C 1013.1 hPa Calm     92% 0.0 mm 0.00 W/m2
05:34 13.8 °C 12.5 °C 1013.1 hPa Calm     92% 0.0 mm 1.34 W/m2
05:39 14.0 °C 12.7 °C 1013.1 hPa Calm     92% 0.0 mm 3.85 W/m2
05:44 14.0 °C 12.9 °C 1013.4 hPa Calm     93% 0.0 mm 6.26 W/m2
05:49 14.0 °C 12.9 °C 1013.1 hPa Calm     93% 0.0 mm 9.58 W/m2
05:54 14.0 °C 12.9 °C 1013.1 hPa Calm     93% 0.0 mm 13.05 W/m2
05:59 13.9 °C 12.8 °C 1013.4 hPa Calm     93% 0.0 mm 18.06 W/m2
06:04 13.9 °C 12.3 °C 1013.4 hPa Calm     90% 0.0 mm 22.42 W/m2
06:09 14.0 °C 12.2 °C 1013.4 hPa Calm     89% 0.0 mm 25.91 W/m2
06:14 14.1 °C 12.2 °C 1013.4 hPa Calm     88% 0.0 mm 28.53 W/m2
06:19 14.4 °C 12.3 °C 1013.4 hPa Calm     87% 0.0 mm 31.21 W/m2
06:24 14.6 °C 12.7 °C 1013.4 hPa Calm     88% 0.0 mm 31.14 W/m2
06:29 14.7 °C 12.9 °C 1013.8 hPa Calm     89% 0.0 mm 34.23 W/m2
06:34 14.8 °C 13.2 °C 1013.8 hPa SSW 1.4 km/h 4.0 km/h 90% 0.0 mm 36.71 W/m2
06:39 14.8 °C 13.2 °C 1013.4 hPa Calm     90% 0.0 mm 39.40 W/m2
06:44 14.7 °C 13.3 °C 1013.8 hPa Calm     91% 0.0 mm 45.16 W/m2
06:49 14.6 °C 13.2 °C 1013.8 hPa Calm     91% 0.0 mm 49.12 W/m2
06:54 14.4 °C 13.0 °C 1014.1 hPa Calm     91% 0.0 mm 47.92 W/m2
06:59 14.3 °C 12.9 °C 1014.1 hPa Calm     91% 0.0 mm 53.82 W/m2
07:04 14.2 °C 12.8 °C 1014.4 hPa Calm     91% 0.0 mm 54.76 W/m2
07:09 14.2 °C 12.8 °C 1014.4 hPa West 3.2 km/h 4.0 km/h 91% 0.0 mm 68.04 W/m2
07:14 14.3 °C 11.8 °C 1014.4 hPa Calm     85% 0.0 mm 87.87 W/m2
07:19 14.5 °C 11.7 °C 1014.4 hPa Calm     83% 0.0 mm 79.51 W/m2
07:24 14.8 °C 11.8 °C 1014.8 hPa Calm     82% 0.0 mm 116.67 W/m2
07:29 15.1 °C 11.5 °C 1014.4 hPa NNE 6.9 km/h 7.9 km/h 79% 0.0 mm 122.74 W/m2
07:34 15.5 °C 11.5 °C 1014.8 hPa Calm     77% 0.0 mm 96.87 W/m2
07:39 15.9 °C 11.7 °C 1014.4 hPa NNW 1.8 km/h 4.0 km/h 76% 0.0 mm 399.24 W/m2
07:44 16.3 °C 11.7 °C 1014.4 hPa NNW 8.2 km/h 11.9 km/h 74% 0.0 mm 343.68 W/m2
07:49 16.7 °C 11.4 °C 1014.4 hPa Calm     71% 0.0 mm 340.62 W/m2
07:54 17.1 °C 10.5 °C 1014.8 hPa WNW 5.5 km/h 7.9 km/h 65% 0.0 mm 453.13 W/m2
07:59 17.6 °C 10.5 °C 1014.4 hPa NNE 2.9 km/h 7.9 km/h 63% 0.0 mm 461.28 W/m2
08:04 18.1 °C 10.7 °C 1014.8 hPa North 7.2 km/h 11.9 km/h 62% 0.0 mm 472.97 W/m2
08:09 18.6 °C 11.4 °C 1014.8 hPa Calm     63% 0.0 mm 478.01 W/m2
08:14 19.1 °C 11.4 °C 1015.1 hPa North 2.1 km/h 4.0 km/h 61% 0.0 mm 479.77 W/m2
08:19 19.4 °C 12.0 °C 1015.1 hPa Calm     62% 0.0 mm 488.99 W/m2
08:24 19.7 °C 12.0 °C 1015.1 hPa NNE 2.1 km/h 4.0 km/h 61% 0.0 mm 494.84 W/m2
08:29 20.0 °C 12.0 °C 1015.1 hPa ENE 0.3 km/h 4.0 km/h 60% 0.0 mm 504.51 W/m2
08:34 20.3 °C 11.8 °C 1015.1 hPa NNW 4.7 km/h 7.9 km/h 58% 0.0 mm 517.87 W/m2
08:39 20.5 °C 11.4 °C 1015.5 hPa North 3.2 km/h 7.9 km/h 56% 0.0 mm 525.70 W/m2
08:44 20.6 °C 11.5 °C 1015.5 hPa North 0.3 km/h 4.0 km/h 56% 0.0 mm 536.68 W/m2
08:49 20.8 °C 11.5 °C 1015.5 hPa NW 6.4 km/h 11.9 km/h 55% 0.0 mm 543.33 W/m2
08:54 21.0 °C 11.9 °C 1015.5 hPa Calm     56% 0.0 mm 540.32 W/m2
08:59 21.2 °C 11.6 °C 1015.5 hPa WNW 2.9 km/h 4.0 km/h 54% 0.0 mm 552.02 W/m2
09:04 21.2 °C 11.8 °C 1015.5 hPa North 6.4 km/h 11.9 km/h 55% 0.0 mm 568.71 W/m2
09:09 21.3 °C 12.2 °C 1015.5 hPa NNW 6.9 km/h 11.9 km/h 56% 0.0 mm 477.02 W/m2
09:14 21.3 °C 12.2 °C 1015.5 hPa NNE 4.3 km/h 7.9 km/h 56% 0.0 mm 185.50 W/m2
09:19 21.2 °C 12.4 °C 1015.8 hPa NNE 1.8 km/h 4.0 km/h 57% 0.0 mm 192.92 W/m2
09:24 21.0 °C 12.4 °C 1015.8 hPa Calm     58% 0.0 mm 449.67 W/m2
09:29 21.0 °C 11.6 °C 1015.8 hPa NE 2.1 km/h 7.9 km/h 55% 0.0 mm 593.14 W/m2
09:34 21.0 °C 11.6 °C 1015.8 hPa NW 3.2 km/h 4.0 km/h 55% 0.0 mm 600.15 W/m2
09:39 21.1 °C 11.5 °C 1015.8 hPa NNW 3.2 km/h 7.9 km/h 54% 0.0 mm 628.45 W/m2
09:44 21.3 °C 11.1 °C 1015.8 hPa NW 7.9 km/h 15.8 km/h 52% 0.0 mm 608.97 W/m2
09:49 21.4 °C 12.3 °C 1015.8 hPa NE 3.2 km/h 7.9 km/h 56% 0.0 mm 200.88 W/m2
09:54 21.4 °C 13.1 °C 1015.8 hPa Calm     59% 0.0 mm 213.03 W/m2
09:59 21.3 °C 13.8 °C 1015.8 hPa Calm     62% 0.0 mm 225.40 W/m2
10:04 21.1 °C 13.3 °C 1015.8 hPa Calm     61% 0.0 mm 195.58 W/m2
10:09 20.8 °C 12.8 °C 1016.1 hPa Calm     60% 0.0 mm 225.22 W/m2
10:14 20.5 °C 12.5 °C 1016.1 hPa North 4.0 km/h 4.0 km/h 60% 0.0 mm 220.63 W/m2
10:19 20.4 °C 12.1 °C 1015.8 hPa North 1.8 km/h 4.0 km/h 59% 0.0 mm 235.17 W/m2
10:24 20.5 °C 12.7 °C 1015.8 hPa NE 1.4 km/h 4.0 km/h 61% 0.0 mm 231.43 W/m2
10:29 20.5 °C 12.7 °C 1015.8 hPa WNW 7.9 km/h 11.9 km/h 61% 0.0 mm 236.47 W/m2
10:34 20.4 °C 12.9 °C 1015.8 hPa Calm     62% 0.0 mm 256.71 W/m2
10:39 20.5 °C 12.7 °C 1016.1 hPa NW 4.0 km/h 4.0 km/h 61% 0.0 mm 322.49 W/m2
10:44 20.6 °C 12.6 °C 1015.8 hPa Calm     60% 0.0 mm 298.82 W/m2
10:49 20.8 °C 12.3 °C 1015.8 hPa North 1.8 km/h 4.0 km/h 58% 0.0 mm 269.09 W/m2
10:54 21.0 °C 13.0 °C 1015.8 hPa NNW 0.3 km/h 4.0 km/h 60% 0.0 mm 248.12 W/m2
10:59 21.2 °C 12.6 °C 1015.8 hPa NNE 0.6 km/h 4.0 km/h 58% 0.0 mm 750.91 W/m2
11:04 21.6 °C 11.9 °C 1015.8 hPa ENE 1.8 km/h 4.0 km/h 54% 0.0 mm 734.85 W/m2
11:09 22.1 °C 11.8 °C 1015.8 hPa NNW 3.2 km/h 4.0 km/h 52% 0.0 mm 680.86 W/m2
11:14 22.6 °C 11.4 °C 1015.8 hPa North 3.2 km/h 4.0 km/h 49% 0.0 mm 700.52 W/m2
11:19 23.0 °C 13.2 °C 1015.5 hPa NW 1.4 km/h 4.0 km/h 54% 0.0 mm 262.97 W/m2
11:24 23.2 °C 13.1 °C 1015.8 hPa North 7.9 km/h 11.9 km/h 53% 0.0 mm 375.08 W/m2
11:29 23.5 °C 12.8 °C 1015.5 hPa North 4.3 km/h 7.9 km/h 51% 0.0 mm 691.89 W/m2
11:34 23.6 °C 13.2 °C 1015.8 hPa North 2.9 km/h 4.0 km/h 52% 0.0 mm 698.32 W/m2
11:39 23.7 °C 12.7 °C 1015.8 hPa NNW 6.4 km/h 7.9 km/h 50% 0.0 mm 651.35 W/m2
11:44 23.6 °C 13.5 °C 1015.8 hPa NE 7.2 km/h 11.9 km/h 53% 0.0 mm 628.81 W/m2
11:49 23.6 °C 12.6 °C 1015.8 hPa Calm     50% 0.0 mm 669.30 W/m2
11:54 23.7 °C 11.8 °C 1015.5 hPa NE 4.7 km/h 7.9 km/h 47% 0.0 mm 677.85 W/m2
11:59 23.9 °C 12.6 °C 1015.8 hPa North 2.9 km/h 4.0 km/h 49% 0.0 mm 674.11 W/m2
12:04 24.2 °C 12.2 °C 1015.8 hPa NE 4.7 km/h 7.9 km/h 47% 0.0 mm 681.49 W/m2
12:09 24.4 °C 12.4 °C 1015.8 hPa NNW 4.3 km/h 7.9 km/h 47% 0.0 mm 693.19 W/m2
12:14 24.6 °C 12.9 °C 1015.8 hPa North 2.9 km/h 4.0 km/h 48% 0.0 mm 301.25 W/m2
12:19 24.8 °C 12.1 °C 1015.8 hPa ENE 3.2 km/h 7.9 km/h 45% 0.0 mm 317.63 W/m2
12:24 24.9 °C 13.5 °C 1015.8 hPa NE 3.2 km/h 4.0 km/h 49% 0.0 mm 695.03 W/m2
12:29 25.0 °C 12.9 °C 1015.8 hPa WNW 5.5 km/h 7.9 km/h 47% 0.0 mm 647.30 W/m2
12:34 25.0 °C 12.9 °C 1015.8 hPa West 1.4 km/h 4.0 km/h 47% 0.0 mm 672.99 W/m2
12:39 24.9 °C 12.8 °C 1015.8 hPa Calm     47% 0.0 mm 752.75 W/m2
12:44 25.0 °C 12.9 °C 1015.8 hPa NW 0.6 km/h 4.0 km/h 47% 0.0 mm 391.18 W/m2
12:49 25.0 °C 13.3 °C 1015.8 hPa NW 7.9 km/h 11.9 km/h 48% 0.0 mm 687.57 W/m2
12:54 24.9 °C 12.5 °C 1015.8 hPa NE 6.4 km/h 7.9 km/h 46% 0.0 mm 693.32 W/m2
12:59 24.8 °C 13.1 °C 1015.8 hPa North 6.9 km/h 7.9 km/h 48% 0.0 mm 651.85 W/m2
13:04 24.8 °C 13.1 °C 1015.8 hPa Calm     48% 0.0 mm 255.68 W/m2
13:09 24.7 °C 13.3 °C 1015.5 hPa NNW 10.8 km/h 19.8 km/h 49% 0.0 mm 616.85 W/m2
13:14 24.7 °C 13.3 °C 1015.5 hPa Calm     49% 0.0 mm 618.82 W/m2
13:19 24.8 °C 13.1 °C 1015.5 hPa NNW 9.3 km/h 11.9 km/h 48% 0.0 mm 628.90 W/m2
13:24 24.9 °C 12.5 °C 1015.5 hPa NNE 1.4 km/h 4.0 km/h 46% 0.0 mm 653.24 W/m2
13:29 25.1 °C 14.3 °C 1015.5 hPa NNW 1.4 km/h 4.0 km/h 51% 0.0 mm 169.71 W/m2
13:34 25.0 °C 14.5 °C 1015.5 hPa NNW 5.5 km/h 7.9 km/h 52% 0.0 mm 648.74 W/m2
13:39 25.1 °C 14.0 °C 1015.5 hPa NNE 2.1 km/h 4.0 km/h 50% 0.0 mm 645.28 W/m2
13:44 25.3 °C 14.2 °C 1015.5 hPa NE 1.8 km/h 4.0 km/h 50% 0.0 mm 674.92 W/m2
13:49 25.2 °C 14.1 °C 1015.5 hPa WNW 4.7 km/h 7.9 km/h 50% 0.0 mm 187.70 W/m2
13:54 25.0 °C 14.2 °C 1015.5 hPa NE 2.9 km/h 7.9 km/h 51% 0.0 mm 632.41 W/m2
13:59 24.9 °C 13.8 °C 1015.5 hPa Calm     50% 0.0 mm 622.56 W/m2
14:04 25.0 °C 13.9 °C 1015.5 hPa Calm     50% 0.0 mm 650.54 W/m2
14:09 25.0 °C 13.6 °C 1015.5 hPa NNW 10.8 km/h 15.8 km/h 49% 0.0 mm 683.65 W/m2
14:14 24.8 °C 14.0 °C 1015.5 hPa West 5.5 km/h 7.9 km/h 51% 0.0 mm 627.78 W/m2
14:19 24.8 °C 13.4 °C 1015.5 hPa NE 0.6 km/h 4.0 km/h 49% 0.0 mm 696.88 W/m2
14:24 24.9 °C 14.1 °C 1015.5 hPa North 4.3 km/h 7.9 km/h 51% 0.0 mm 688.56 W/m2
14:29 24.9 °C 13.8 °C 1015.5 hPa NW 7.9 km/h 11.9 km/h 50% 0.0 mm 411.97 W/m2
14:34 24.8 °C 13.7 °C 1015.5 hPa NNW 10.5 km/h 11.9 km/h 50% 0.0 mm 617.20 W/m2
14:39 24.9 °C 13.8 °C 1015.5 hPa SSW 2.9 km/h 4.0 km/h 50% 0.0 mm 624.90 W/m2
14:44 25.0 °C 13.3 °C 1015.5 hPa NW 7.2 km/h 7.9 km/h 48% 0.0 mm 625.80 W/m2
14:49 25.2 °C 14.1 °C 1015.1 hPa NNE 2.1 km/h 4.0 km/h 50% 0.0 mm 630.75 W/m2
14:54 25.3 °C 14.2 °C 1015.5 hPa NW 2.1 km/h 7.9 km/h 50% 0.0 mm 628.32 W/m2
14:59 25.3 °C 14.2 °C 1015.5 hPa NNW 1.4 km/h 4.0 km/h 50% 0.0 mm 625.62 W/m2
15:04 25.5 °C 14.3 °C 1015.5 hPa East 2.9 km/h 4.0 km/h 50% 0.0 mm 645.64 W/m2
15:09 25.5 °C 14.0 °C 1015.1 hPa NNW 9.3 km/h 15.8 km/h 49% 0.0 mm 628.41 W/m2
15:14 25.5 °C 14.3 °C 1015.5 hPa NW 4.7 km/h 7.9 km/h 50% 0.0 mm 620.53 W/m2
15:19 25.4 °C 14.6 °C 1015.5 hPa North 9.7 km/h 15.8 km/h 51% 0.0 mm 218.83 W/m2
15:24 25.1 °C 14.3 °C 1015.5 hPa NNE 1.8 km/h 4.0 km/h 51% 0.0 mm 606.59 W/m2
15:29 24.9 °C 14.4 °C 1015.5 hPa NNW 5.8 km/h 7.9 km/h 52% 0.0 mm 608.75 W/m2
15:34 24.8 °C 13.7 °C 1015.5 hPa NW 2.9 km/h 4.0 km/h 50% 0.0 mm 619.68 W/m2
15:39 24.7 °C 13.9 °C 1015.5 hPa NNE 8.2 km/h 11.9 km/h 51% 0.0 mm 630.30 W/m2
15:44 24.6 °C 13.5 °C 1015.5 hPa ESE 5.8 km/h 7.9 km/h 50% 0.0 mm 606.95 W/m2
15:49 24.6 °C 13.8 °C 1015.8 hPa NNW 1.4 km/h 4.0 km/h 51% 0.0 mm 592.51 W/m2
15:54 24.7 °C 14.2 °C 1015.5 hPa WNW 1.4 km/h 4.0 km/h 52% 0.0 mm 623.41 W/m2
15:59 24.8 °C 14.3 °C 1015.5 hPa North 2.9 km/h 4.0 km/h 52% 0.0 mm 177.58 W/m2
16:04 24.8 °C 14.6 °C 1015.5 hPa ENE 4.0 km/h 7.9 km/h 53% 0.0 mm 435.45 W/m2
16:09 24.7 °C 14.8 °C 1015.5 hPa Calm     54% 0.0 mm 233.32 W/m2
16:14 23.8 °C 13.7 °C 1015.5 hPa North 7.2 km/h 7.9 km/h 53% 0.0 mm 582.20 W/m2
16:19 23.8 °C 13.4 °C 1015.5 hPa NW 10.5 km/h 15.8 km/h 52% 0.0 mm 582.43 W/m2
16:24 23.9 °C 13.8 °C 1015.5 hPa WNW 4.0 km/h 7.9 km/h 53% 0.0 mm 580.90 W/m2
16:29 23.9 °C 13.5 °C 1015.5 hPa Calm     52% 0.0 mm 571.59 W/m2
16:34 24.0 °C 13.6 °C 1015.5 hPa WNW 12.2 km/h 15.8 km/h 52% 0.0 mm 563.94 W/m2
16:39 24.0 °C 13.9 °C 1015.5 hPa NNE 13.4 km/h 24.1 km/h 53% 0.0 mm 568.12 W/m2
16:44 24.0 °C 14.1 °C 1015.8 hPa WNW 6.4 km/h 7.9 km/h 54% 0.0 mm 560.65 W/m2
16:49 24.1 °C 13.1 °C 1015.8 hPa NE 2.9 km/h 4.0 km/h 50% 0.0 mm 556.43 W/m2
16:54 24.2 °C 14.0 °C 1015.8 hPa NW 4.3 km/h 7.9 km/h 53% 0.0 mm 557.78 W/m2
16:59 24.2 °C 13.8 °C 1015.8 hPa NNE 0.6 km/h 4.0 km/h 52% 0.0 mm 546.93 W/m2
17:04 24.1 °C 13.7 °C 1015.8 hPa NNW 11.9 km/h 15.8 km/h 52% 0.0 mm 545.00 W/m2
17:09 24.1 °C 13.7 °C 1015.8 hPa NNE 4.0 km/h 7.9 km/h 52% 0.0 mm 532.94 W/m2
17:14 24.2 °C 13.8 °C 1015.8 hPa Calm     52% 0.0 mm 530.42 W/m2
17:19 23.9 °C 13.5 °C 1016.1 hPa NW 8.2 km/h 15.8 km/h 52% 0.0 mm 527.00 W/m2
17:24 23.9 °C 14.1 °C 1015.8 hPa Calm     54% 0.0 mm 514.90 W/m2
17:29 23.9 °C 13.5 °C 1015.8 hPa NNW 7.9 km/h 11.9 km/h 52% 0.0 mm 516.66 W/m2
17:34 23.8 °C 13.4 °C 1016.1 hPa NNW 5.5 km/h 7.9 km/h 52% 0.0 mm 509.46 W/m2
17:39 23.7 °C 13.6 °C 1015.8 hPa North 5.5 km/h 7.9 km/h 53% 0.0 mm 499.29 W/m2
17:44 23.5 °C 13.7 °C 1016.1 hPa North 4.0 km/h 7.9 km/h 54% 0.0 mm 124.36 W/m2
17:49 23.3 °C 13.8 °C 1016.1 hPa NW 11.9 km/h 15.8 km/h 55% 0.0 mm 166.33 W/m2
17:54 22.9 °C 14.2 °C 1016.5 hPa NNW 14.8 km/h 24.1 km/h 58% 0.0 mm 141.32 W/m2
17:59 22.4 °C 14.5 °C 1016.5 hPa NNE 14.3 km/h 19.8 km/h 61% 0.0 mm 122.83 W/m2
18:04 21.9 °C 14.3 °C 1016.1 hPa North 5.5 km/h 7.9 km/h 62% 0.0 mm 110.55 W/m2
18:09 21.4 °C 13.6 °C 1016.5 hPa North 5.8 km/h 11.9 km/h 61% 0.0 mm 104.61 W/m2
18:14 21.0 °C 13.5 °C 1016.5 hPa NNW 0.3 km/h 4.0 km/h 62% 0.0 mm 106.86 W/m2
18:19 20.6 °C 13.3 °C 1016.5 hPa NNW 3.2 km/h 4.0 km/h 63% 0.0 mm 104.74 W/m2
18:24 20.3 °C 13.3 °C 1016.8 hPa NW 6.4 km/h 11.9 km/h 64% 0.0 mm 114.33 W/m2
18:29 20.1 °C 13.1 °C 1016.5 hPa NW 4.7 km/h 7.9 km/h 64% 0.0 mm 104.02 W/m2
18:34 19.9 °C 13.2 °C 1016.8 hPa North 5.5 km/h 11.9 km/h 65% 0.0 mm 99.39 W/m2
18:39 19.8 °C 13.1 °C 1016.8 hPa WNW 7.2 km/h 11.9 km/h 65% 0.0 mm 110.73 W/m2
18:44 19.6 °C 12.6 °C 1017.2 hPa NW 0.6 km/h 4.0 km/h 64% 0.0 mm 113.70 W/m2
18:49 19.5 °C 12.8 °C 1017.2 hPa North 4.7 km/h 7.9 km/h 65% 0.0 mm 138.98 W/m2
18:54 19.5 °C 13.0 °C 1017.2 hPa NNW 1.4 km/h 4.0 km/h 66% 0.0 mm 111.36 W/m2
18:59 19.4 °C 12.7 °C 1017.2 hPa NW 13.0 km/h 15.8 km/h 65% 0.0 mm 125.35 W/m2
19:04 19.4 °C 12.9 °C 1017.2 hPa North 1.8 km/h 4.0 km/h 66% 0.0 mm 220.72 W/m2
19:09 19.4 °C 12.7 °C 1017.5 hPa NNE 11.9 km/h 15.8 km/h 65% 0.0 mm 113.25 W/m2
19:14 19.4 °C 12.9 °C 1017.5 hPa North 6.4 km/h 7.9 km/h 66% 0.0 mm 110.64 W/m2
19:19 19.3 °C 13.0 °C 1017.5 hPa Calm     67% 0.0 mm 97.77 W/m2
19:24 19.3 °C 13.0 °C 1017.8 hPa North 7.2 km/h 11.9 km/h 67% 0.0 mm 95.75 W/m2
19:29 19.2 °C 12.9 °C 1017.5 hPa NE 2.9 km/h 4.0 km/h 67% 0.0 mm 87.20 W/m2
19:34 19.2 °C 13.2 °C 1017.8 hPa North 2.9 km/h 11.9 km/h 68% 0.0 mm 239.03 W/m2
19:39 19.2 °C 12.7 °C 1017.8 hPa North 0.6 km/h 4.0 km/h 66% 0.0 mm 190.67 W/m2
19:44 19.1 °C 13.1 °C 1017.8 hPa NE 4.0 km/h 7.9 km/h 68% 0.0 mm 69.05 W/m2
19:49 19.1 °C 13.3 °C 1018.2 hPa NW 5.8 km/h 7.9 km/h 69% 0.0 mm 70.52 W/m2
19:54 19.0 °C 13.2 °C 1017.8 hPa NW 14.8 km/h 19.8 km/h 69% 0.0 mm 76.56 W/m2
19:59 18.9 °C 13.3 °C 1017.8 hPa NNE 3.2 km/h 4.0 km/h 70% 0.0 mm 64.02 W/m2
20:04 18.8 °C 13.2 °C 1017.8 hPa NNE 0.3 km/h 4.0 km/h 70% 0.0 mm 56.91 W/m2
20:09 18.6 °C 13.0 °C 1018.2 hPa NNE 1.4 km/h 4.0 km/h 70% 0.0 mm 45.84 W/m2
20:14 18.4 °C 13.1 °C 1018.2 hPa Calm     71% 0.0 mm 37.05 W/m2
20:19 18.3 °C 13.0 °C 1018.2 hPa NNE 5.5 km/h 7.9 km/h 71% 0.0 mm 28.80 W/m2
20:24 18.2 °C 12.9 °C 1018.2 hPa NW 4.3 km/h 11.9 km/h 71% 0.0 mm 20.61 W/m2
20:29 18.2 °C 13.1 °C 1018.2 hPa Calm     72% 0.0 mm 10.11 W/m2
20:34 18.1 °C 13.2 °C 1018.5 hPa NW 7.2 km/h 7.9 km/h 73% 0.0 mm 4.61 W/m2
20:39 18.0 °C 13.1 °C 1018.5 hPa North 4.0 km/h 7.9 km/h 73% 0.0 mm 0.41 W/m2
20:44 17.9 °C 13.0 °C 1018.2 hPa NW 5.5 km/h 7.9 km/h 73% 0.0 mm 0.00 W/m2
20:49 17.8 °C 13.1 °C 1018.5 hPa NE 1.4 km/h 4.0 km/h 74% 0.0 mm 0.00 W/m2
20:54 17.7 °C 13.0 °C 1018.5 hPa NNW 4.3 km/h 11.9 km/h 74% 0.0 mm 0.00 W/m2
20:59 17.6 °C 13.1 °C 1018.5 hPa NNW 0.3 km/h 4.0 km/h 75% 0.0 mm 0.00 W/m2
21:04 17.5 °C 13.2 °C 1018.8 hPa NW 4.0 km/h 4.0 km/h 76% 0.0 mm 0.00 W/m2
21:09 17.4 °C 13.1 °C 1018.5 hPa Calm     76% 0.0 mm 0.00 W/m2
21:14 17.4 °C 13.1 °C 1018.8 hPa SSW 0.3 km/h 4.0 km/h 76% 0.0 mm 0.00 W/m2
21:19 17.3 °C 13.3 °C 1018.8 hPa NNW 1.8 km/h 4.0 km/h 77% 0.0 mm 0.00 W/m2
21:24 17.2 °C 13.2 °C 1018.8 hPa NW 2.1 km/h 4.0 km/h 77% 0.0 mm 0.00 W/m2
21:29 17.2 °C 13.0 °C 1018.8 hPa North 5.5 km/h 7.9 km/h 76% 0.0 mm 0.00 W/m2
21:34 17.2 °C 13.0 °C 1018.8 hPa NW 2.1 km/h 4.0 km/h 76% 0.0 mm 0.00 W/m2
21:39 17.2 °C 12.8 °C 1018.8 hPa NW 3.2 km/h 4.0 km/h 75% 0.0 mm 0.00 W/m2
21:44 17.2 °C 12.8 °C 1019.2 hPa NNW 2.9 km/h 4.0 km/h 75% 0.0 mm 0.00 W/m2
21:49 17.2 °C 12.8 °C 1019.2 hPa NNW 4.0 km/h 7.9 km/h 75% 0.0 mm 0.00 W/m2
21:54 17.2 °C 12.8 °C 1019.2 hPa NE 0.3 km/h 4.0 km/h 75% 0.0 mm 0.00 W/m2
21:59 17.2 °C 12.8 °C 1019.2 hPa NW 0.3 km/h 4.0 km/h 75% 0.0 mm 0.00 W/m2
22:04 17.2 °C 12.8 °C 1019.5 hPa North 0.6 km/h 4.0 km/h 75% 0.0 mm 0.00 W/m2
22:09 17.2 °C 13.0 °C 1019.2 hPa WNW 14.8 km/h 15.8 km/h 76% 0.0 mm 0.00 W/m2
22:14 17.2 °C 13.0 °C 1019.2 hPa NW 0.3 km/h 4.0 km/h 76% 0.0 mm 0.00 W/m2
22:19 17.3 °C 13.1 °C 1019.2 hPa NNW 1.8 km/h 4.0 km/h 76% 0.0 mm 0.00 W/m2
22:24 17.2 °C 12.8 °C 1019.2 hPa Calm     75% 0.0 mm 0.00 W/m2
22:29 17.2 °C 13.0 °C 1019.2 hPa North 1.8 km/h 4.0 km/h 76% 0.0 mm 0.00 W/m2
22:34 17.2 °C 13.2 °C 1019.2 hPa NNW 4.0 km/h 4.0 km/h 77% 0.0 mm 0.00 W/m2
22:39 17.2 °C 13.2 °C 1019.2 hPa NNW 1.8 km/h 4.0 km/h 77% 0.0 mm 0.00 W/m2
22:44 17.2 °C 13.0 °C 1019.2 hPa NW 3.2 km/h 7.9 km/h 76% 0.0 mm 0.00 W/m2
22:49 17.2 °C 13.0 °C 1019.2 hPa Calm     76% 0.0 mm 0.00 W/m2
22:54 17.2 °C 13.2 °C 1019.2 hPa Calm     77% 0.0 mm 0.00 W/m2
22:59 17.1 °C 12.9 °C 1019.2 hPa NNW 0.6 km/h 4.0 km/h 76% 0.0 mm 0.00 W/m2
23:04 17.1 °C 12.9 °C 1019.2 hPa Calm     76% 0.0 mm 0.00 W/m2
23:09 17.1 °C 12.7 °C 1018.8 hPa Calm     75% 0.0 mm 0.00 W/m2
23:14 17.1 °C 12.7 °C 1019.2 hPa Calm     75% 0.0 mm 0.00 W/m2
23:19 17.1 °C 12.9 °C 1018.8 hPa WNW 1.8 km/h 4.0 km/h 76% 0.0 mm 0.00 W/m2
23:24 17.0 °C 12.8 °C 1018.8 hPa North 1.8 km/h 4.0 km/h 76% 0.0 mm 0.00 W/m2
Franklin Riverside, Huon Valley, TAS
Compliments of Weather Underground - 2.75 mb